Location: Godiavel Galaoual
(15.2485°N, 12.6604°W)
Time: 10:32:03
(UTC+00:00)

Hubble Space Telescope - Pass Details

Date: 15 May 2021
Orbit: 535 x 539 km, 28.5° (Epoch: 19 June)

Event Time Altitude Azimuth Distance (km) Brightness Sun altitude
Exits shadow 04:22:55 12° 134° (SE) 1,635 3.4 -26.8°
Drops below altitude 10° 04:23:53 10° 120° (ESE) 1,772 3.7 -26.6°
Sets 04:27:12 0° 92° (E) 2,662 5.2 -26.0°
